Evansville, IN

7:14 AM CDT on August 17, 2017 (GMT -0500)
Evansville Regional

Weather History for KEVV - October, 2011

Change the Weather History Date:

Wednesday, October 19, 2011

  Actual Average Record
Temperature  
Mean Temperature 46 °F 57 °F  
Max Temperature 48 °F 69 °F 88 °F (2005)
Min Temperature 43 °F 45 °F 26 °F (1972)
Degree Days  
Heating Degree Days 19 9  
Month to date heating degree days 89 129  
Since 1 July heating degree days 135 176  
Cooling Degree Days 0 1  
Month to date cooling degree days 13 26  
Year to date cooling degree days 1643 1392  
Moisture  
Dew Point 41 °F    
Average Humidity 86    
Maximum Humidity 89    
Minimum Humidity 82    
Precipitation  
Precipitation 0.26 in 0.11 in 1.56 in (1905)
Month to date precipitation 1.50 1.94  
Year to date precipitation 54.68 35.91  
Snow  
Snow 0.00 in 0.10 in 0.90 in (1989)
Month to date snowfall 0.0 0.1  
Since 1 July snowfall 0.0 0.1  
Since 1 September snowfall 0.0 0.1  
Snow Depth 0.00 in    
Sea Level Pressure  
Sea Level Pressure 29.62 in    
Wind  
Wind Speed 13 mph (NW)    
Max Wind Speed 23 mph    
Max Gust Speed 35 mph    
Visibility 7 miles    
Events Rain    
T = Trace of Precipitation, MM = Missing Value Source: NWS Daily Summary

Daily Weather History Graph

Daily Weather History Graph

Search for Another Location

Airport or City:

Trip Planner

Search our weather history database for the weather conditions in past years. The results will help you decide how hot, cold, wet, or windy it might be!

Date:

Astronomy

Oct. 19, 2011 Rise Set
Actual Time 7:02 AM CDT 6:07 PM CDT
Civil Twilight 6:35 AM CDT 6:33 PM CDT
Nautical Twilight 6:05 AM CDT 7:04 PM CDT
Astronomical Twilight 5:34 AM CDT 7:34 PM CDT
Moon 11:54 PM CDT (10/19) 1:30 PM CDT (10/19)
Length of Visible Light 11h 58m
Length of Day
11h 04m
Waning Gibbous, 54% of the Moon is Illuminated
Oct 19
Waning Gibbous
Oct 19
Last Quarter
Oct 26
New
Nov 2
First Quarter
Nov 10
Full

Hourly Weather History & Observations

Time (CDT) Temp. Windchill Dew Point Humidity Pressure Visibility Wind Dir Wind Speed Gust Speed Precip Events Conditions
12:54 AM 46.0 °F 41.0 °F 42.1 °F 86% 29.69 in 10.0 mi NNW 10.4 mph 17.3 mph 0.03 in Rain Light Rain
1:20 AM 46.4 °F 41.9 °F 42.8 °F 87% 29.68 in 9.0 mi NNW 9.2 mph - 0.01 in Rain Light Rain
1:54 AM 46.4 °F 42.4 °F 42.8 °F 87% 29.67 in 10.0 mi NW 8.1 mph - N/A Rain Light Rain
2:05 AM 46.4 °F 41.9 °F 42.8 °F 87% 29.67 in 10.0 mi NNW 9.2 mph - 0.00 in Rain Light Rain
2:54 AM 46.4 °F 41.9 °F 42.8 °F 87% 29.66 in 10.0 mi NNW 9.2 mph - N/A   Overcast
3:54 AM 46.0 °F 41.4 °F 41.0 °F 83% 29.65 in 10.0 mi NNW 9.2 mph - 0.01 in Rain Light Rain
4:54 AM 45.0 °F 40.1 °F 41.0 °F 86% 29.64 in 10.0 mi NW 9.2 mph - 0.00 in   Overcast
5:54 AM 45.0 °F 39.3 °F 41.0 °F 86% 29.62 in 10.0 mi NW 11.5 mph - N/A   Overcast
6:54 AM 45.0 °F 40.1 °F 41.0 °F 86% 29.61 in 10.0 mi NNW 9.2 mph - N/A   Overcast
7:24 AM 46.4 °F 41.9 °F 41.0 °F 81% 29.60 in 5.0 mi NW 9.2 mph - N/A   Overcast
7:54 AM 46.0 °F 42.5 °F 41.0 °F 83% 29.60 in 5.0 mi NW 6.9 mph - N/A   Overcast
8:05 AM 46.4 °F 41.5 °F 42.8 °F 87% 29.61 in 8.0 mi NNW 10.4 mph - N/A   Overcast
8:22 AM 46.4 °F 41.5 °F 42.8 °F 87% 29.61 in 8.0 mi NW 10.4 mph 17.3 mph N/A   Overcast
8:29 AM 46.4 °F 41.5 °F 42.8 °F 87% 29.61 in 8.0 mi NW 10.4 mph - N/A   Overcast
8:54 AM 46.0 °F 41.9 °F 42.1 °F 86% 29.61 in 5.0 mi NW 8.1 mph - N/A   Overcast
9:01 AM 46.4 °F 41.5 °F 42.8 °F 87% 29.61 in 8.0 mi NNW 10.4 mph 18.4 mph N/A   Overcast
9:08 AM 46.4 °F 41.5 °F 42.8 °F 87% 29.61 in 5.0 mi NW 10.4 mph - N/A   Overcast
9:50 AM 46.4 °F 42.9 °F 42.8 °F 87% 29.60 in 5.0 mi NW 6.9 mph 17.3 mph N/A   Overcast
9:54 AM 46.9 °F - 42.1 °F 83% 29.60 in 5.0 mi NNW 9.2 mph - N/A   Overcast
10:54 AM 46.4 °F 40.7 °F 42.8 °F 87% 29.59 in 5.0 mi NNW 12.7 mph 19.6 mph N/A Rain Light Rain
11:24 AM 46.4 °F 41.5 °F 42.8 °F 87% 29.59 in 1.0 mi NNW 10.4 mph 19.6 mph 0.01 in Rain Light Rain
11:54 AM 46.9 °F - 43.0 °F 86% 29.58 in 5.0 mi NW 8.1 mph 17.3 mph 0.02 in Rain Light Rain
12:54 PM 46.9 °F - 41.0 °F 80% 29.57 in 6.0 mi NW 9.2 mph - 0.00 in Rain Light Rain
1:54 PM 46.9 °F - 42.1 °F 83% 29.56 in 6.0 mi NW 11.5 mph 25.3 mph 0.01 in Rain Light Rain
2:54 PM 46.9 °F - 41.0 °F 80% 29.56 in 6.0 mi NW 18.4 mph 26.5 mph 0.00 in Rain Light Rain
3:54 PM 45.0 °F 37.6 °F 39.9 °F 82% 29.59 in 6.0 mi NW 17.3 mph 33.4 mph 0.01 in Rain Light Rain
4:54 PM 44.1 °F 36.5 °F 39.0 °F 82% 29.60 in 6.0 mi NW 17.3 mph 26.5 mph 0.01 in Rain Light Rain
5:54 PM 44.1 °F 36.8 °F 39.9 °F 85% 29.62 in 6.0 mi WNW 16.1 mph 24.2 mph 0.03 in Rain Light Rain
6:54 PM 44.1 °F 35.9 °F 39.0 °F 82% 29.63 in 6.0 mi WNW 19.6 mph 26.5 mph 0.02 in Rain Light Rain
7:54 PM 44.1 °F 35.9 °F 39.0 °F 82% 29.64 in 10.0 mi West 19.6 mph 27.6 mph 0.01 in Rain Light Rain
8:54 PM 44.1 °F 36.2 °F 39.0 °F 82% 29.63 in 6.0 mi WNW 18.4 mph 28.8 mph 0.02 in Rain Light Rain
9:54 PM 43.0 °F 34.8 °F 37.9 °F 82% 29.63 in 10.0 mi WNW 18.4 mph 28.8 mph 0.00 in Rain Light Rain
10:54 PM 43.0 °F 34.8 °F 39.0 °F 86% 29.63 in 9.0 mi West 18.4 mph 26.5 mph 0.03 in Rain Rain
11:54 PM 43.0 °F 34.8 °F 39.0 °F 86% 29.62 in 10.0 mi WNW 18.4 mph 25.3 mph 0.04 in Rain Light Rain